Regional Weather Roundup
Issued by NWS

Home | Current Version | Previous Version | Graphics & Text | Print | Product List | Glossary On
Versions: 1 2 3 4 5 6 7 8 9 10 11 12 13 14 15 16 17 18 19 20 21 22 23 24 25 26 27 28 29 30 31 32 33 34 35 36 37 38 39 40 41 42 43 44 45 46 47 48 49 50
000
ASUS43 KOAX 250802
RWRNE

WEATHER ROUNDUP FOR NEBRASKA
NATIONAL WEATHER SERVICE OMAHA NE
200 AM CST THU DEC 25 2014

NOTES: SATELLITE DATA IS BEING USED TO AUGMENT CLOUD COVER ABOVE
       12000 FEET.
       "FAIR" INDICATES FEW OR NO CLOUDS BELOW 12,000 FEET WITH NO
       SIGNIFICANT WEATHER AND/OR OBSTRUCTIONS TO VISIBILITY.

  * THESE STATIONS DO NOT REPORT WEATHER SUCH AS RAIN...SNOW OR FOG.

NEZ001>004-019>022-054>056-250900-
NEBRASKA PANHANDLE

CITY           SKY/WX    TMP DP  RH WIND       PRES   REMARKS
SCOTTSBLUFF    CLOUDY    35  28  75 E7        29.42F WCI  29
ALLIANCE       CLOUDY    29  25  85 S5        29.42F WCI  24
CHADRON        CLOUDY    29  24  82 VRB5      29.44R WCI  24
SIDNEY         CLOUDY    29  22  75 NW7       29.44F WCI  22
$$

NEZ057>060-069>072-079>082-250900-
SOUTHWEST NEBRASKA

CITY           SKY/WX    TMP DP  RH WIND       PRES   REMARKS
NORTH PLATTE   CLOUDY    26  22  84 CALM      29.49F
IMPERIAL       CLOUDY    31  21  66 W5        29.47F WCI  26
LEXINGTON      CLOUDY    33  25  71 CALM      29.51S
MCCOOK         CLOUDY    34  20  56 S6        29.49F WCI  29
$$

NEZ005>010-023>029-035>040-094-250900-
NORTH CENTRAL NEBRASKA

CITY           SKY/WX    TMP DP  RH WIND       PRES   REMARKS
VALENTINE      CLOUDY    31  27  85 CALM      29.44F
AINSWORTH      CLOUDY    34  28  78 SW7       29.46S WCI  28
BROKEN BOW     CLOUDY    31  26  82 SW5       29.49F WCI  26
O`NEILL        MOCLDY    30  26  84 S7        29.49S WCI  23
ORD            MOCLDY    27  23  85 E5        29.50F WCI  22
$$

NEZ041-046>049-061>064-073>077-083>087-250900-
SOUTH CENTRAL NEBRASKA

CITY           SKY/WX    TMP DP  RH WIND       PRES   REMARKS
GRAND ISLAND   MOCLDY    33  20  58 S12       29.57S WCI  24
AURORA         MOCLDY    32  23  68 S10       29.58S WCI  24
HASTINGS       CLOUDY    34  20  56 S9        29.56F WCI  27
HEBRON         MOCLDY    34  24  66 S9        29.63S WCI  27
KEARNEY *      CLOUDY    30  21  69 S10       29.54F WCI  21
$$

NEZ011>018-030>034-042>045-250900-
NORTHEAST NEBRASKA

CITY           SKY/WX    TMP DP  RH WIND       PRES   REMARKS
NORFOLK        CLEAR     30  23  75 SW7       29.55R WCI  23
BLAIR          CLEAR     30  27  88 S10       29.62S WCI  21
COLUMBUS *     MOCLDY    32  21  64 S8        29.60R WCI  25
TEKAMAH        CLEAR     30  27  88 S9        29.63F WCI  22
WAYNE          CLEAR     27  24  87 S9        29.57R WCI  18
$$

NEZ050>053-065>068-078-088>093-250900-
SOUTHEAST NEBRASKA

CITY           SKY/WX    TMP DP  RH WIND       PRES   REMARKS
LINCOLN        MOCLDY    31  25  78 S10       29.65R WCI  22
OMAHA EPPLEY   PTCLDY    30  27  88 S15       29.67S WCI  19
FALLS CITY     PTCLDY    31  27  85 S15G24    29.72S WCI  20
NEBRASKA CITY  CLEAR     31  27  86 S14       29.68S WCI  21
$$

NEZ044-045-051>053-067-250900-
OMAHA AREA

CITY           SKY/WX    TMP DP  RH WIND       PRES   REMARKS
OMAHA EPPLEY   PTCLDY    30  27  88 S15       29.67S WCI  19
BLAIR          CLEAR     30  27  88 S10       29.62S WCI  21
OFFUTT AFB     CLEAR     29  27  91 SE7       29.66S WCI  22
WAHOO          FAIR      27  24  88 S6        29.63R WCI  20
$$


USA.gov is the U.S. government's official web portal to all federal, state and local government web resources and services.